User: anonymous   Login
Location: Trondheim
(63.4170°N, 10.4170°E)
Time: 16:02:27
(UTC+02:00)
Language:

Iridium 82 - Orbit

View from above orbital plane
View from above orbital plane
View from above satellite
View from above satellite

Ground track
Ground track

The orbit data is extracted from the following two-line orbital elements,

1 25467U 98051A   16210.44774969  .00000167  00000-0  52538-4 0  9998
2 25467  86.4025 157.5030 0002031  86.6483 273.4945 14.34218228940218
Epoch (UTC): 28 July 2016 10:44:45
Eccentricity: 0.0002031
inclination: 86.4025°
perigee height: 776 km
apogee height: 779 km
right ascension of ascending node: 157.5030°
argument of perigee: 86.6483°
revolutions per day: 14.34218228
mean anomaly at epoch: 273.4945°
orbit number at epoch: 94021

The dashed part of the orbit path shows where the satellite is in the earth's shadow,  

DLR